STARLINK-1792 (46693 NORAD) Tracking and Keplerian Element Data

This shows tracking and keplerian element data for the satellite.

Feedback or suggestion? Click here.




ElementValue
Catalog46693
NameSTARLINK-1792
Epoch Orbit180
Epoch Day20.91667824
Epoch Year2021
RAAN13.4331
Inclination53.0342
Eccentricity0.0001792
Argument of Perigee68.1662
Mean Anonmoly286.7874
Mean Motion15.06381124
Decay Rate0.00037637
L11 46693U 20073Z 21020.91667824 .00037637 00000-0 25334-2 0 9993
L22 46693 53.0342 13.4331 0001792 68.1662 286.7874 15.06381124 1802

Live tracking and technical data element details for STARLINK-1792 (NORAD 46693). STARLINK-1792 can be tracked NOW for your location showing map with azimuth and elevation plus other details from your city location.

Track the satellite on the map from your city or location and see movement details for azimuth, elevation, latitude, longitude, range, height, and movement on the map or in text.







IsCatalogInMostPopularTable: catalog: 46693, numindb: 32
Update: records affected: 1



GetName: 46693 STARLINK-1792

Hit Count: updated at: Fri, 22 Jan 2021 14:47:54 GMT